Hourly Data Report for October 06, 2017

All times are specified in Local Standard Time (LST). Add 1 hour to adjust for Daylight Saving Time where and when it is observed.

FORT GOOD HOPE CS
NORTHWEST TERRITORIES

66°14'32.044" N
128°38'39.081" W
81.70 m
2201450
71491
ZGH

Download Data

Hourly Data (October 2017)
Hourly Data Report for October 6, 2017
Temp Definition
°C
Dew Point Temp Definition
°C
Rel Hum Definition
%
Wind Dir Definition
10's deg

Wind Spd Definition
km/h
Visibility Definition
km
Stn Press Definition
kPa
Hmdx Definition


Wind Chill Definition


Weather Definition


TIME
00:00 3.0 2.3 95 7 7   98.19     LegendNANA
01:00 2.1 1.5 96 10 7   98.14     LegendNANA
02:00 1.4 0.9 97 4 4   98.13     LegendNANA
03:00 1.0 0.6 97 3 4   98.13     LegendNANA
04:00 0.5 0.2 98 5 6   98.11     LegendNANA
05:00 0.5 0.2 98 6 10   98.11     LegendNANA
06:00 0.7 0.4 98 7 11   98.08     LegendNANA
07:00 1.1 0.9 98 6 11   98.08     LegendNANA
08:00 1.6 1.3 98 6 8   98.08     LegendNANA
09:00 1.8 1.5 98 8 7   98.11     LegendNANA
10:00 2.7 2.2 96 7 6   98.17     LegendNANA
11:00 4.1 2.7 91 7 8   98.19     LegendNANA
12:00 4.6 2.9 89 7 9   98.23     LegendNANA
13:00 5.3 2.8 84 8 8   98.30     LegendNANA
14:00 5.3 2.6 82 8 7   98.35     LegendNANA
15:00 5.8 3.0 82 7 5   98.40     LegendNANA
16:00 6.3 3.2 81 8 12   98.48     LegendNANA
17:00 5.8 3.1 83 8 8   98.55     LegendNANA
18:00 5.6 3.1 84 7 9   98.64     LegendNANA
19:00 4.8 2.7 87 7 6   98.72     LegendNANA
20:00 4.4 2.4 87 5 6   98.81     LegendNANA
21:00 3.8 2.2 89 4 4   98.86     LegendNANA
22:00 3.5 1.8 89 4 3   98.94     LegendNANA
23:00 3.6 1.8 88 1 3   99.00     LegendNANA

Notes on Data Quality.

Legend

  • E = Estimated
  • M = Missing
  • NA = Not Available
  • ‡ = Partner data that is not subject to review by the National Climate Archives
Date modified: